Temp_Advection
nan nan nan nan nan nan nan nan nan nan nan nan nan nan nan nan nan nan nan nan nan nan nan nan nan nan nan nan nan nan nan nan nan nan nan nan nan nan nan nan nan nan nan nan nan
nan -0 -0 -0 -0 -0 -0 -0 0 0 0 0 0 -0 -0 -0 -1 -1 -0 0 0 0 0 0 0 0 -0 -0 -0 -0 -0 -0 0 0 0 0 0 -0 -0 -0 -0 -0 -0 0 nan
nan 0 0 -0 -0 -0 -0 -0 -0 0 0 0 0 -0 -0 -0 0 -0 0 0 0 0 0 0 0 -0 -0 -0 -0 0 -0 0 0 0 0 -0 0 0 -0 -0 0 0 0 1 nan
nan 0 0 0 -0 -0 -0 -0 -0 -0 0 0 0 0 -0 -1 -0 0 0 0 0 0 0 0 0 -0 -0 0 0 -0 0 0 0 0 0 0 -0 -0 -0 0 0 0 0 0 nan
nan -0 -0 0 0 -0 -0 -0 -0 -0 -0 0 0 -0 -0 -0 -0 0 0 0 0 0 0 0 -0 0 0 0 0 -0 0 0 0 0 -0 -0 -0 -0 -0 0 1 0 0 1 nan
nan -0 -1 -0 0 -0 -0 -0 -0 -0 -0 0 0 0 -0 -1 -0 0 0 0 0 0 0 0 0 0 0 0 0 -0 -0 -0 -0 0 0 -0 0 0 -0 0 0 0 0 1 nan
nan -0 -0 -0 -0 -0 -0 0 -0 -0 -0 0 0 0 -0 -1 -0 0 0 0 0 0 0 0 0 0 0 0 0 -0 -0 -0 0 0 0 0 -0 -1 0 0 -0 0 0 1 nan
nan -0 -0 -0 -0 -0 -0 -0 -0 -0 -0 0 0 0 -0 -0 0 -0 -0 0 0 0 0 0 0 0 0 0 -0 -0 -0 -0 -0 0 0 -0 -1 -0 0 -0 -0 0 0 0 nan
nan -1 -1 -1 -1 -0 -0 -0 0 -0 -0 0 0 -0 -0 -0 -0 -0 0 0 0 0 0 0 0 -0 -0 -0 -0 -0 -0 0 0 0 0 -0 -0 0 0 -0 -0 0 0 1 nan
nan -1 -1 -1 -1 -1 -1 -0 0 0 -0 -0 -0 -0 -0 0 -0 0 0 0 0 0 -0 -0 -0 -0 -0 -0 -0 0 0 -0 0 -0 0 -0 -1 -0 1 1 0 0 1 1 nan
nan -1 -1 -1 -1 -1 -1 -0 -0 0 -0 -0 0 0 0 0 0 0 0 0 -0 -0 -0 -0 -0 -0 -0 0 0 0 -0 -0 0 0 -0 -1 -0 -0 0 1 0 0 1 1 nan
nan -1 -1 -1 -0 -0 -1 -0 -0 0 -0 0 1 -0 -0 0 0 0 0 0 -0 -0 0 -0 -1 0 0 0 0 -0 -0 -0 0 0 -0 -1 0 0 0 0 0 -0 1 1 nan
nan -1 -0 -1 -1 -0 -0 -0 -0 -0 -0 -0 -0 -0 -0 -0 -0 0 0 -0 -0 0 -0 -0 -0 0 0 0 -0 -0 -0 0 0 0 0 -0 0 0 -0 -0 -0 -0 0 0 nan
nan -1 -1 -1 -0 -0 -1 0 0 -0 -0 -0 -0 -0 -0 -0 0 0 0 0 -0 -0 0 0 -0 0 -0 -0 -0 0 0 0 0 -0 -0 -0 -0 -0 0 -0 -0 -0 -0 0 nan
nan -0 -0 -1 -0 -1 -1 -0 0 -0 -1 0 -0 -0 0 -0 -0 0 0 0 -0 0 0 -0 0 0 -0 0 0 -0 0 0 0 0 -0 0 -0 -0 -0 -0 -0 0 0 0 nan
nan -0 0 -0 -1 -0 -1 -0 -0 -0 -0 0 -0 -0 -0 0 -0 -0 0 -0 0 0 0 0 0 -0 0 -0 0 0 0 -0 -0 0 -0 0 -0 0 -0 0 0 0 0 0 nan
nan -0 -0 -0 -1 -0 0 -0 -0 -0 0 0 0 0 -0 -0 -0 -0 -0 -0 0 0 0 0 -0 0 0 -0 -0 -0 -0 -0 -0 -0 0 -0 -0 -0 0 0 0 0 0 -0 nan
nan 0 0 -0 -0 -0 -0 -0 -1 -0 0 -0 0 0 0 0 -0 0 -0 -0 0 0 0 -0 0 0 0 -0 0 0 -0 -0 -0 -0 -0 -0 -1 0 0 0 0 0 -0 -0 nan
nan -0 -0 0 0 -1 -0 -0 -0 -0 0 0 -0 0 0 0 0 0 0 0 -0 0 0 0 0 -0 -0 0 -0 0 0 -0 0 0 -0 -0 0 0 -0 0 0 1 0 -0 nan
nan -0 -0 -0 0 -0 -0 -0 -0 -0 0 0 0 -0 0 0 0 0 0 -0 0 0 -0 0 0 0 0 0 0 -0 0 0 0 -0 -0 -0 -0 0 0 0 0 0 0 -0 nan
nan -0 -0 0 -0 -0 -0 -0 -0 0 -0 -0 0 0 0 0 0 0 -0 -0 0 0 0 0 -0 0 -0 0 0 -0 0 0 -0 -0 -0 -0 0 -0 0 0 -0 -0 0 -0 nan
nan -0 -0 -0 -0 -0 -0 -0 -0 0 -0 -0 -0 0 0 0 0 0 0 -0 0 0 0 -0 0 -0 -0 -0 -0 -0 0 0 0 0 0 -0 0 -0 0 0 0 0 -0 -0 nan
nan -0 -0 -0 -0 -0 -0 -0 -0 0 -0 0 0 -0 -0 0 0 0 -0 -0 0 0 0 0 0 -0 -0 -0 -0 0 0 0 -0 -0 -1 -0 0 -0 0 0 1 1 -0 -0 nan
nan -0 0 0 -0 -0 0 -0 0 -0 0 -0 -0 0 0 0 -0 0 -0 -0 -0 0 0 0 -0 -0 -0 -0 -0 0 0 0 -0 -0 -0 -0 0 0 0 1 0 0 0 -0 nan
nan -0 -0 -0 -0 0 -0 -0 -0 0 -0 0 0 -0 0 0 0 0 -0 -0 -0 -0 -0 0 0 0 -1 -0 0 0 0 0 -0 -0 0 -0 0 0 0 0 0 0 -0 -0 nan
nan -0 -0 0 -0 -0 -0 -0 0 0 0 0 -0 0 0 0 0 0 0 0 0 -0 0 0 -0 0 -0 -0 0 -0 -0 0 -0 -0 0 -0 -1 1 -0 0 0 0 0 -0 nan
nan nan nan nan nan nan nan nan nan nan nan nan nan nan nan nan nan nan nan nan nan nan nan nan nan nan nan nan nan nan nan nan nan nan nan nan nan nan nan nan nan nan nan nan nan
Wind_Speed
19 18 18 19 20 20 18 16 15 18 14 20 20 22 21 18 16 17 11 8 6 3 3 3 5 8 8 5 5 5 5 8 6 6 1 3 3 3 2 4 4 5 3 4 11
22 21 21 20 20 20 19 19 18 19 18 18 17 19 22 19 19 20 8 9 4 3 2 4 6 9 5 6 5 6 4 6 2 3 2 2 4 4 5 8 8 7 10 9 11
22 21 22 22 22 21 20 19 19 19 19 19 18 18 16 16 16 5 8 4 3 3 3 4 6 5 5 6 7 5 6 4 4 6 4 4 5 5 6 11 13 10 9 14 16
25 25 25 23 23 23 23 21 19 19 18 18 17 16 15 14 7 3 6 5 4 5 2 3 4 5 5 6 6 5 9 8 2 2 3 5 5 7 14 19 6 8 8 13 17
28 27 26 25 24 24 23 23 21 19 17 16 12 13 11 6 12 14 11 7 5 6 3 4 5 4 5 4 5 10 7 5 8 7 9 8 15 13 23 16 13 13 14 14 15
30 30 30 29 26 24 25 23 20 20 17 14 12 12 14 14 10 8 8 7 6 6 3 3 4 4 3 4 7 1 6 10 9 13 10 8 16 4 11 6 12 14 15 14 16
30 29 31 30 28 25 25 23 22 18 16 12 11 11 14 18 11 9 9 7 7 5 3 4 6 5 5 4 3 3 8 10 12 8 6 3 10 14 15 7 9 11 12 13 15
28 28 28 29 28 26 24 21 21 19 13 9 7 5 8 8 6 12 10 8 8 6 4 5 5 3 4 2 2 5 4 6 5 5 3 4 10 4 2 5 7 7 8 11 14
27 27 28 28 26 25 23 19 20 16 7 4 3 3 6 5 8 12 11 7 7 5 4 5 4 3 4 6 5 5 7 7 4 4 3 9 9 2 3 5 9 9 11 11 13
29 28 29 28 26 24 23 16 16 8 5 6 8 5 8 4 6 6 9 8 3 6 4 3 4 6 5 8 5 4 6 6 9 3 6 11 19 18 21 17 18 17 14 13 17
32 30 28 28 27 24 23 12 3 6 9 9 7 3 5 6 4 6 8 7 5 5 6 5 7 9 8 10 5 3 6 11 10 4 6 15 17 17 18 17 16 17 13 13 17
30 32 29 26 25 25 17 9 8 5 11 16 19 15 13 8 5 8 10 8 7 9 5 5 10 3 2 4 7 8 9 11 9 2 4 12 20 16 6 2 4 7 9 8 7
29 29 26 24 19 21 10 13 10 7 6 6 9 10 10 13 8 11 13 5 7 7 9 10 3 6 3 5 6 9 11 8 7 6 8 11 11 1 2 3 4 5 6 5 4
31 29 29 30 15 9 14 9 8 3 5 6 8 8 11 8 5 8 12 5 5 6 4 6 1 4 4 5 8 7 3 4 3 5 5 4 6 4 2 1 3 5 6 2 5
30 27 28 24 18 19 15 11 5 1 5 9 6 10 11 8 11 5 9 4 7 5 4 2 3 4 6 3 8 2 2 2 3 5 6 5 4 2 3 4 6 7 5 3 9
26 23 24 21 17 15 18 14 8 4 8 6 6 8 9 5 5 7 4 3 2 3 4 7 1 3 3 2 2 7 2 2 2 2 4 4 4 3 2 2 4 5 4 7 13
30 23 25 19 17 14 10 6 5 7 2 3 4 7 10 7 6 6 5 6 4 3 3 4 4 2 2 4 4 5 4 3 4 3 2 3 5 6 3 5 3 2 7 11 14
33 28 24 17 18 12 11 4 9 4 3 1 1 6 7 6 3 5 6 5 2 1 2 4 4 5 3 3 1 5 3 3 4 2 2 4 6 1 0 3 3 5 11 10 14
37 31 17 12 16 18 7 7 3 3 2 1 2 3 3 3 3 5 6 4 2 3 4 4 3 3 1 0 2 4 4 2 1 1 3 3 4 3 4 7 4 5 9 13 17
30 25 17 12 10 13 4 6 4 2 5 3 4 2 6 6 5 5 5 2 3 1 3 3 2 1 3 3 3 2 5 2 1 3 4 4 5 3 6 4 4 8 11 17 18
20 10 8 1 9 7 3 6 5 6 4 4 5 4 2 3 3 3 4 3 2 3 1 3 2 3 3 6 4 4 3 2 2 2 3 4 2 0 4 1 7 9 12 15 18
11 3 10 9 4 2 4 3 2 6 2 1 1 2 4 5 4 3 4 1 4 5 3 2 1 3 0 2 2 2 3 6 4 4 2 3 5 1 1 3 6 11 12 14 15
14 9 8 9 3 4 2 4 5 3 3 3 2 3 1 4 3 3 6 4 5 3 4 5 2 3 2 2 2 4 6 5 2 1 8 3 2 2 3 5 4 9 11 15 16
7 4 4 4 3 3 3 3 3 2 2 3 3 3 4 3 2 4 4 3 4 0 3 3 2 5 6 3 3 4 7 11 9 5 5 11 11 4 8 7 5 7 11 14 14
4 3 5 4 1 5 2 1 2 3 2 1 2 3 4 3 4 4 3 5 2 1 2 1 4 3 10 13 12 14 12 12 16 17 9 1 7 5 7 7 5 9 11 11 14
4 4 5 8 9 4 5 3 6 2 4 3 3 7 3 2 1 5 4 3 2 2 3 0 2 2 7 10 10 12 13 14 18 20 16 18 22 13 1 2 4 6 9 11 14
7 12 7 5 2 3 3 5 3 7 1 3 4 4 5 3 6 7 5 5 3 3 5 3 2 2 3 1 7 8 7 9 7 7 13 14 10 0 1 3 4 6 8 11 14
Wind_Direction
352 351 350 348 344 339 332 317 296 288 294 302 309 315 327 319 318 314 301 220 208 255 289 228 178 179 169 169 166 163 235 241 238 212 196 153 200 180 210 230 208 209 221 199 173
349 347 347 345 342 339 333 325 312 296 290 293 297 305 320 317 315 304 252 183 191 266 244 198 173 165 173 170 176 211 233 245 250 217 239 181 241 206 211 218 226 229 233 231 201
354 351 347 345 343 340 333 325 319 309 298 282 289 295 304 320 314 238 181 193 216 212 216 214 185 177 187 175 186 186 243 228 229 232 254 259 249 233 245 256 244 245 232 224 212
357 353 351 352 348 344 339 330 324 312 299 292 282 291 297 306 303 213 229 253 231 189 192 220 184 188 210 208 190 233 245 237 255 188 226 248 273 252 241 254 266 260 234 224 216
353 351 350 349 348 346 342 336 327 318 306 296 285 294 290 268 266 270 249 236 214 193 177 205 220 212 224 204 198 237 256 245 252 259 258 262 258 264 262 261 257 252 247 235 228
347 346 346 348 346 345 341 337 333 320 311 293 279 270 290 270 260 245 218 232 217 190 214 211 222 213 232 231 224 309 270 273 269 262 253 247 265 242 259 245 241 243 245 237 229
337 340 340 341 342 342 341 335 330 321 307 287 264 258 269 254 265 236 218 209 191 204 239 222 213 204 183 211 226 280 287 275 253 260 233 219 255 233 266 253 250 243 240 233 228
327 329 331 331 336 336 337 331 326 318 307 275 254 244 255 260 242 228 216 214 207 219 234 212 212 206 223 167 208 248 253 273 128 165 159 204 262 177 207 224 239 231 232 227 221
317 319 321 322 326 328 331 326 320 315 305 260 225 222 255 256 223 226 213 212 209 218 209 195 181 210 181 222 226 210 260 237 260 205 190 219 275 219 204 221 245 257 256 227 209
318 317 315 313 320 323 323 322 314 292 279 229 234 232 229 171 179 198 215 209 192 168 149 203 195 217 205 207 236 205 225 233 255 155 224 257 263 272 275 267 266 267 253 226 213
317 319 317 314 316 320 321 329 313 262 227 225 236 225 157 182 202 206 205 192 157 204 219 185 232 217 208 219 276 262 255 269 272 264 288 270 275 277 281 275 270 264 248 222 217
310 311 311 311 313 317 314 286 265 282 291 261 238 237 226 230 207 201 193 192 197 220 179 200 236 266 197 203 221 239 268 270 283 266 258 287 284 294 304 296 308 285 243 204 195
310 305 318 305 304 307 296 280 279 291 259 260 217 213 215 214 216 191 180 193 226 211 213 255 76 120 167 182 214 238 252 274 281 306 253 294 274 219 146 111 59 82 147 165 192
312 305 306 305 308 279 292 271 286 294 275 188 198 189 167 165 180 168 180 189 200 239 207 258 96 236 212 233 218 247 212 245 252 296 284 357 290 221 191 170 191 166 172 202 278
313 307 306 306 281 290 298 268 253 163 271 138 152 158 161 177 135 164 182 188 226 188 206 71 194 207 235 256 192 2 141 233 253 264 303 179 239 169 174 224 200 206 211 290 308
330 311 303 302 276 268 283 256 189 195 243 173 143 167 153 167 144 129 160 176 131 185 230 269 257 255 272 96 170 135 179 197 189 212 239 143 233 188 170 189 195 204 234 314 317
331 317 299 288 260 249 254 250 210 216 79 175 191 176 182 154 147 177 159 171 209 191 206 188 199 148 204 195 166 206 224 235 218 205 287 162 230 291 192 209 223 214 292 318 323
332 320 307 281 259 248 256 237 215 221 242 54 107 144 186 144 145 156 166 186 156 147 170 247 197 186 160 255 234 185 236 279 280 271 358 169 237 154 233 227 225 290 318 321 328
329 328 311 303 243 263 208 229 274 220 159 148 56 184 159 158 164 181 207 175 124 178 216 188 203 122 66 150 286 148 209 20 292 172 265 232 230 201 220 238 238 316 335 333 336
329 321 303 302 228 245 207 236 263 296 238 157 172 262 201 166 189 192 181 102 140 176 260 173 245 191 122 167 77 279 136 163 163 252 250 226 259 251 194 213 275 328 333 334 338
341 317 316 224 206 242 221 213 265 232 279 267 173 153 168 148 194 181 150 127 148 141 94 148 258 138 201 203 177 158 188 148 328 236 278 293 178 130 164 243 310 318 316 331 337
338 287 323 222 206 228 237 229 275 224 134 275 295 115 157 165 170 181 161 82 163 161 141 94 143 251 10 73 345 285 212 185 232 172 234 297 274 147 210 313 302 293 317 334 344
327 276 289 260 212 205 255 256 262 254 196 195 136 74 321 148 166 195 129 122 158 177 166 166 198 273 184 121 187 229 199 201 103 304 219 232 264 176 250 309 274 289 327 342 351
327 308 293 251 285 309 190 253 249 38 151 76 93 93 158 146 90 162 129 168 184 159 168 157 201 251 266 31 103 201 204 203 205 222 239 234 272 224 256 316 314 318 337 345 351
328 298 293 296 271 247 295 239 223 215 50 111 172 230 161 150 142 175 127 134 148 41 69 247 257 213 268 275 257 257 245 216 215 232 238 299 251 274 298 313 296 321 340 346 353
292 301 302 285 301 263 244 217 238 175 198 193 228 174 164 156 157 180 137 158 205 103 190 18 268 288 288 273 260 256 254 248 230 242 252 260 275 291 356 261 287 336 347 349 347
300 300 298 278 277 264 244 246 229 147 201 18 171 134 139 92 93 88 91 94 122 171 192 206 257 264 274 296 308 263 241 229 237 231 236 244 268 92 245 255 327 348 346 343 345
Height
1523 1520 1516 1514 1511 1509 1506 1504 1504 1503 1500 1498 1496 1494 1493 1490 1488 1484 1481 1481 1482 1481 1481 1480 1480 1479 1480 1482 1483 1483 1481 1472 1470 1472 1466 1474 1473 1476 1476 1477 1478 1478 1478 1478 1479
1524 1520 1516 1513 1509 1506 1503 1502 1500 1500 1497 1495 1493 1491 1491 1488 1485 1481 1479 1476 1478 1480 1481 1481 1479 1478 1480 1481 1482 1480 1475 1467 1469 1470 1471 1473 1475 1474 1476 1474 1475 1475 1475 1475 1476
1522 1519 1516 1511 1507 1504 1501 1498 1496 1494 1494 1492 1490 1489 1489 1486 1483 1478 1477 1477 1476 1477 1480 1480 1478 1479 1478 1479 1479 1478 1470 1470 1470 1472 1474 1473 1474 1474 1473 1469 1470 1471 1473 1473 1474
1521 1518 1514 1509 1506 1502 1499 1495 1491 1491 1490 1489 1487 1485 1486 1485 1481 1478 1478 1477 1476 1476 1477 1479 1478 1477 1475 1475 1476 1476 1472 1472 1471 1472 1473 1472 1472 1472 1470 1467 1469 1470 1470 1470 1470
1520 1516 1511 1507 1503 1499 1496 1493 1489 1488 1485 1484 1484 1483 1484 1483 1479 1474 1476 1477 1475 1476 1474 1477 1477 1475 1472 1473 1476 1473 1470 1471 1471 1471 1471 1471 1469 1470 1463 1465 1466 1465 1466 1467 1468
1518 1514 1510 1504 1501 1497 1493 1490 1486 1484 1482 1479 1480 1482 1481 1480 1473 1473 1473 1476 1474 1474 1474 1474 1475 1474 1473 1473 1473 1472 1472 1469 1468 1468 1468 1468 1465 1469 1458 1460 1461 1462 1463 1464 1465
1517 1511 1507 1503 1498 1495 1490 1488 1484 1481 1479 1476 1476 1476 1478 1474 1471 1471 1472 1471 1473 1474 1473 1472 1474 1474 1473 1471 1473 1472 1469 1464 1462 1464 1465 1466 1461 1458 1456 1457 1458 1458 1459 1460 1461
1514 1507 1504 1499 1495 1492 1487 1486 1481 1478 1476 1473 1471 1473 1472 1468 1467 1470 1470 1471 1470 1471 1472 1472 1473 1473 1472 1472 1471 1468 1468 1458 1459 1463 1465 1465 1447 1451 1454 1455 1455 1456 1457 1457 1458
1507 1504 1500 1495 1491 1487 1484 1481 1477 1474 1473 1471 1470 1471 1468 1465 1466 1468 1469 1469 1469 1468 1470 1471 1472 1472 1473 1467 1463 1464 1450 1455 1454 1461 1462 1462 1448 1449 1452 1453 1453 1454 1454 1455 1456
1504 1499 1496 1492 1487 1483 1480 1477 1473 1473 1471 1470 1469 1472 1464 1462 1464 1465 1467 1468 1468 1468 1470 1472 1471 1467 1467 1462 1452 1447 1456 1457 1453 1458 1461 1455 1449 1447 1447 1449 1449 1449 1450 1451 1452
1499 1497 1491 1488 1484 1480 1476 1475 1474 1473 1469 1463 1461 1458 1460 1459 1461 1463 1465 1466 1467 1470 1464 1468 1465 1455 1450 1455 1457 1458 1456 1453 1449 1457 1460 1449 1444 1442 1443 1444 1446 1445 1446 1447 1449
1493 1490 1486 1483 1481 1477 1475 1474 1471 1469 1462 1455 1453 1454 1456 1456 1459 1459 1463 1466 1465 1461 1465 1466 1454 1452 1457 1459 1459 1458 1455 1449 1449 1459 1460 1447 1439 1438 1442 1444 1446 1445 1444 1446 1447
1487 1484 1481 1477 1476 1472 1471 1471 1469 1467 1462 1450 1448 1447 1451 1453 1454 1456 1459 1462 1461 1459 1458 1453 1454 1457 1456 1458 1457 1453 1452 1450 1454 1454 1453 1451 1426 1440 1442 1444 1444 1444 1444 1447 1445
1481 1478 1476 1473 1474 1469 1467 1466 1466 1467 1459 1440 1443 1443 1445 1449 1452 1453 1455 1459 1459 1455 1457 1455 1457 1456 1455 1454 1454 1452 1453 1457 1458 1455 1446 1452 1433 1425 1436 1443 1442 1444 1445 1446 1444
1474 1472 1470 1468 1468 1468 1468 1464 1462 1466 1454 1434 1438 1439 1441 1445 1447 1451 1453 1456 1452 1453 1457 1447 1453 1454 1453 1451 1453 1451 1459 1458 1458 1456 1459 1448 1454 1416 1433 1436 1436 1441 1443 1444 1442
1471 1467 1465 1463 1460 1463 1462 1461 1461 1461 1449 1433 1434 1435 1437 1442 1444 1449 1452 1454 1454 1454 1454 1451 1457 1456 1452 1457 1458 1461 1460 1460 1459 1458 1451 1452 1448 1407 1423 1435 1435 1441 1442 1441 1439
1467 1462 1459 1458 1456 1456 1458 1458 1455 1445 1432 1432 1431 1432 1431 1437 1442 1444 1450 1450 1448 1452 1451 1449 1450 1455 1456 1454 1459 1457 1456 1439 1439 1443 1425 1455 1447 1418 1432 1435 1439 1441 1440 1438 1436
1462 1458 1453 1452 1452 1451 1455 1456 1439 1430 1431 1431 1432 1432 1429 1435 1439 1443 1445 1445 1453 1451 1452 1442 1439 1451 1455 1451 1448 1452 1451 1439 1430 1422 1422 1452 1433 1414 1433 1437 1440 1439 1437 1437 1434
1457 1451 1447 1447 1449 1450 1452 1449 1434 1427 1432 1432 1433 1432 1433 1436 1438 1441 1441 1442 1449 1453 1450 1453 1442 1454 1455 1455 1455 1453 1452 1456 1453 1462 1444 1416 1420 1433 1435 1435 1437 1437 1437 1435 1432
1455 1449 1444 1444 1446 1448 1448 1444 1435 1434 1430 1431 1433 1432 1430 1435 1437 1440 1442 1450 1453 1456 1456 1456 1450 1453 1456 1457 1457 1452 1454 1453 1453 1441 1431 1410 1415 1402 1428 1431 1432 1435 1436 1433 1430
1455 1450 1445 1444 1446 1446 1442 1441 1435 1435 1437 1432 1430 1433 1433 1437 1440 1441 1443 1453 1455 1457 1456 1457 1457 1452 1455 1450 1444 1455 1454 1457 1458 1455 1437 1418 1400 1429 1430 1435 1436 1436 1435 1432 1428
1456 1453 1446 1444 1444 1444 1441 1438 1436 1432 1436 1435 1435 1433 1435 1439 1440 1443 1442 1449 1455 1455 1454 1457 1457 1449 1442 1454 1454 1451 1448 1452 1445 1449 1453 1449 1415 1431 1434 1436 1438 1436 1434 1431 1428
1458 1451 1446 1444 1439 1440 1439 1437 1435 1432 1436 1436 1435 1435 1439 1438 1443 1442 1446 1454 1455 1455 1456 1457 1457 1442 1448 1456 1454 1451 1450 1453 1459 1458 1442 1435 1406 1432 1434 1435 1436 1434 1432 1429 1426
1461 1454 1447 1443 1441 1441 1438 1437 1435 1435 1436 1435 1437 1438 1439 1440 1444 1444 1447 1455 1456 1456 1456 1457 1457 1447 1427 1441 1447 1453 1450 1451 1453 1443 1427 1426 1413 1427 1428 1431 1434 1432 1430 1428 1426
1462 1457 1453 1445 1441 1441 1441 1439 1435 1436 1437 1437 1439 1439 1439 1442 1445 1445 1447 1454 1456 1457 1458 1458 1453 1456 1446 1443 1445 1445 1445 1449 1448 1436 1435 1420 1428 1426 1429 1432 1433 1431 1430 1428 1425
1463 1460 1453 1448 1444 1442 1439 1436 1434 1438 1439 1437 1439 1437 1442 1441 1442 1448 1448 1449 1451 1458 1458 1460 1448 1453 1446 1438 1439 1440 1436 1437 1441 1436 1433 1433 1424 1426 1431 1432 1431 1431 1430 1428 1424
1460 1458 1455 1446 1444 1443 1436 1432 1433 1435 1438 1438 1437 1440 1442 1445 1447 1448 1450 1452 1454 1456 1457 1457 1453 1452 1437 1439 1442 1431 1432 1430 1428 1430 1428 1427 1422 1429 1430 1430 1431 1431 1430 1428 1424